www.pogodaiklimat.ru

Погода и климат >> Архив погоды >> Россия >> Свердловская область >> Невьянск


ПОГОДА в Невьянске

  • Прогноз погоды в Невьянске
  • Монитор погоды в Невьянске

АРХИВ ПОГОДЫ в Невьянске

Время (UTC), дата Ветер
(напр.,м/с)
 
Видим.   Явления Облачность Т
(С)
Тd
(С)
f
(%)
Тe
(С)
Тes
(С)
Комфортность P
(гПа)
Po
(гПа)
Тmin
(С)
Tmax
(С)
R
(мм)
R24
(мм)
S
(см)
06 17.07 З 6
{12}
50 км 4/0
[Ci fib]
+20.0 +8.7 48 +21 +25 комфорт 1012.8 982.9
09 17.07 З 6-12
{14}
50 км 4/3 600 м
[Cu hum Ci fib]
+22.1 +6.9 37 +23 +27 комфорт 1012.6 982.9
12 17.07 З 6-10
{12}
50 км 3/3 1000 м
[Cu hum]
+22.9 +6.1 34 +23 +25 комфорт 1012.2 982.6
15 17.07 СЗ 5
{10}
50 км 1/1 1000 м
[Cu hum]
+21.4 +6.8 39 +22 +22 комфорт 1012.4 982.7 +23.1
18 17.07 З 2 4000 м ясно +17.3 +8.1 55 +18 +18 1013.4 983.3
21 17.07 ЮЗ 3 4000 м ясно +14.7 +8.2 65 +14 +14 1012.9 982.5
00 18.07 Ю 2 50 км ясно +11.7 +8.9 83 +11 +11 1013.3 982.5
03 18.07 З 3 50 км ясно +16.2 +9.5 64 +16 +19 1013.2 982.9 +11.7
06 18.07 З 5
{11}
50 км ясно +21.0 +6.4 39 +22 +28 комфорт 1011.6 981.9
09 18.07 З 4 50 км 3/0
[Ci fib]
+23.6 +6.0 32 +24 +32 комфорт 1010.7 981.2
12 18.07 З 3 50 км 3/0
[Ci fib]
+25.7 +3.6 24 +25 +30 комфорт 1010.0 980.7
15 18.07 СЗ 2 50 км 6/0
[Ac trans Cc]
+24.3 +5.6 30 +24 +25 комфорт 1009.8 980.4 +25.8
18 18.07 штиль 0 4000 м ясно +18.4 +9.8 57 +19 +19 1010.8 980.8
21 18.07 С 2 4000 м ясно +13.3 +10.2 81 +13 +13 1011.2 980.7
00 19.07 С 2 50 км 8/0
[Ac trans]
+12.8 +9.0 78 +12 +12 1011.0 980.5
03 19.07 С 2 50 км 4/0
[Ac trans]
+16.6 +9.7 64 +17 +20 1010.0 979.9 +11.6
06 19.07 В 1 50 км 1/0
[Ac trans]
+23.4 +13.0 52 +26 +40 жарко 1009.1 979.7
09 19.07 В 3 50 км 6/0
[Ac trans]
+28.0 +14.9 45 +31 +38 душно 1007.6 978.7
12 19.07 В 3 50 км 1/1 600 м
[Cu hum]
+30.5 +14.8 39 +33 +38 душно 1006.7 978.1
15 19.07 СВ 2 50 км 8/4 600 м
[Cb cap Ac trans]
+26.4 +16.4 54 +30 +30 душно 1006.9 977.9 +30.7
18 19.07 В 2 4000 м 8/6 600 м
[Sc Ac trans]
+23.4 +15.9 63 +28 +28 душно 1007.9 978.6
21 19.07 штиль 0 4000 м 3/0
[Ac trans Ci fib]
+20.3 +16.1 77 +23 +23 комфорт 1007.9 978.3
00 20.07 Ю 2 50 км 8/0
[Ac trans]
+18.3 +16.5 89 +19 +19 1008.6 978.8
03 20.07 Ю 2 50 км 8/3 600 м
[Sc Ac trans]
+22.9 +17.3 71 +28 +30 душно 1008.7 979.3 +18.2
06 20.07 Ю 4 50 км {гроза} 3/3 600 м
[Cu med, cong]
+26.2 +17.7 60 +31 +36 очень
душно
1008.6 979.5
09 20.07 З 4
{10}
50 км 6/6 600 м
[Cu med, cong]
+27.1 +15.5 49 +30 +34 душно 1008.7 979.7
12 20.07 СЗ 4
{10}
50 км 6/6 600 м
[Cu med, cong]
+28.4 +13.4 40 +30 +32 жарко 1008.6 979.8
15 20.07 СЗ 2 50 км 3/3 600 м
[Cu med, cong]
+26.6 +14.6 48 +29 +30 жарко 1009.3 980.2 +28.8
18 20.07 СЗ 2 4000 м 6/0
[Ci fib]
+21.8 +15.5 67 +25 +25 комфорт 1009.7 980.2
21 20.07 СЗ 2 4000 м 8/0
[Ac trans]
+19.5 +15.1 76 +22 +22 комфорт 1009.7 980.0
00 21.07 З 2 50 км 8/0
[Ac trans]
+19.0 +15.2 79 +21 +21 комфорт 1009.3 979.6
03 21.07 Ю 3 50 км 8/5 600 м
[Sc Ac trans]
+18.9 +15.4 80 +20 +21 1009.1 979.3 +18.5
06 21.07 З 2 50 км 9/6 600 м
[Sc Ac trans]
+20.5 +15.8 74 +24 +27 комфорт 1008.0 978.4
09 21.07 СЗ 3 50 км 9/6 600 м
[Cu Sc Ac trans]
+22.0 +15.2 65 +26 +28 душно 1007.6 978.2
12 21.07 З 3
{10}
11 км гроза, ливневой дождь 9/6 600 м
[Cb cap Ac trans]
+19.1 +13.7 71 +21 +22 комфорт 1008.3 978.5
15 21.07 Ю 1 50 км {гроза, ливн. осадки} 9/5 600 м
[Cb cap Ac trans]
+20.8 +15.2 70 +25 +25 комфорт 1007.0 977.5 +23.2 0.3
18 21.07 З 2 4000 м {гроза, ливн. осадки} 8/4 600 м
[Sc Ac trans]
+19.0 +14.4 75 +21 +21 комфорт 1007.2 977.5
21 21.07 З 2 4000 м 6/6 600 м
[Sc]
+17.2 +13.1 77 +18 +18 1006.6 976.7
00 22.07 З 3 50 км 6/3 600 м
[Sc Cc]
+16.1 +12.5 79 +16 +16 1006.7 976.7
03 22.07 З 4 50 км 3/0
[Ci fib]
+18.2 +12.8 71 +18 +21 1006.4 976.5 +16.0
06 22.07 СЗ 6
{10}
50 км 6/4 600 м
[Cu hum Ci fib]
+22.0 +11.3 51 +24 +27 комфорт 1005.5 976.1
09 22.07 З 3
{10}
50 км 8/4 600 м
[Cu med, cong Ac trans Ci fib]
+22.4 +11.2 49 +25 +29 комфорт 1005.5 976.1
12 22.07 СЗ 3
{10}
50 км 8/4 600 м
[Cu hum Ac trans Ci fib]
+24.5 +11.3 44 +26 +28 жарко 1005.7 976.5
15 22.07 СЗ 3 50 км 4/0
[Ac trans Ci fib]
+22.4 +11.4 50 +25 +25 комфорт 1006.2 976.8 +25.0
18 22.07 З 2 4000 м 6/0
[Ac trans Ci fib]
+17.4 +12.0 71 +18 +18 1006.8 976.9
21 22.07 ЮЗ 1 4000 м 3/0
[Ac trans]
+15.6 +11.9 79 +16 +16 1007.0 976.9
00 23.07 ЮЗ 2 50 км 8/0
[Ci fib]
+14.5 +11.5 82 +14 +14 1007.1 976.9
03 23.07 З 2 50 км 9/3 600 м
[Sc Ac trans Ci fib]
+16.0 +12.3 79 +16 +18 1007.2 977.1 +13.5
06 23.07 СЗ 5 50 км 8/4 600 м
[Cu med, cong Ac trans Ci fib]
+19.9 +12.4 62 +21 +24 комфорт 1006.4 976.7
09 23.07 СЗ 6 50 км 8/5 600 м
[Cb cap Ci fib]
+22.4 +10.5 47 +24 +27 комфорт 1006.5 977.1
12 23.07 С 5
{10}
50 км {ливн. осадки} 9/4 600 м
[Cb cap Ac trans]
+21.0 +12.7 59 +23 +24 комфорт 1007.3 977.7
15 23.07 З 4
{10}
10 км слаб. ливневой дождь 9/8 600 м
[Cb cap Ac trans]
+15.8 +13.5 86 +15 +15 1009.1 978.9 +23.7 1
18 23.07 СЗ 3 1000 м слаб. ливневой дождь 9/9 700 м
[Cb cap]
+15.4 +14.0 91 +15 +15 1009.8 979.6
21 23.07 С 3 1000 м дымка {ливн. осадки} 9/9 660 м
[Cb cap]
+15.9 +14.6 92 +15 +15 1010.2 980.1
00 24.07 С 3 6000 м дымка {ливн. осадки} 9/9 700 м
[Cb cap]
+15.4 +14.1 92 +15 +15 1011.5 981.3
03 24.07 СЗ 2 3400 м дымка 9/8 600 м
[Sc Ac trans]
+16.1 +14.3 89 +16 +17 1012.8 982.6 +15.1 14

 

Местоположение метеостанции Невьянск (Свердловская область, Россия): широта 57.50 долгота 60.25 высота над уровнем моря 257 м.

В архиве по умолчанию представлена погода в Невьянске за последнюю неделю. Архивные данные за месяц целиком и за предыдущие месяцы, начиная с января 2011 года, Вы можете получить, выбрав интересующий диапазон дат из раскрывающегося списка и нажав кнопку "Ввод!".


*Определитесь, кто Вы:
робот инопланетянин человек

Внимание! Время в таблицах - всемирное. Для получения местного времени необходимо прибавить поправку, которая равна 5 ч.

Смотрите также архив погоды в соседних городах и на ближайших метеорологических станциях:

Погода в Нижнем Тагиле (Свердловская область, Россия) (44 км)
Погода в Висиме (Свердловская область, Россия) (47 км)
Погода в Ревде (Свердловская область, Россия) (71 км)
Погода в Екатеринбурге (Свердловская область, Россия) (78 км)
Погода в Екатеринбурге (Бот.сад) (Свердловская область, Россия) (82 км)
Погода в Алапаевске (Свердловская область, Россия) (96 км)
Погода в Кушве (Свердловская область, Россия) (96 км)
Погода в Верхнем Дуброво (Свердловская область, Россия) (99 км)
Погода в Бисерти (Свердловская область, Россия) (99 км)
Погода в Мариинске (Свердловская область, Россия) (101 км)

Пояснения к столбцам:

Ветер - указаны скорость ветра в м/с - средняя за 10 мин, порывы в срок и между сроками (в фигурных скобках) и направление, откуда дует ветер: С - северный, СВ - северо-восточный, В - восточный, ЮВ - юго-восточный, Ю - южный, ЮЗ - юго-западный, З - западный, СЗ - северо-западный.
Видимость - горизонтальная дальность видимости в метрах или километрах. При видимости от 1 до 10 км при отсутствии осадков обычно наблюдается дымка, при ухудшении видимости до 1 км и менее - туман. В сухую погоду видимость может ухудшаться дымом, пылью или мглою.
Явления - указаны атмосферные явления, наблюдавшиеся в срок или в последний час перед сроком; фигурными скобками обозначены явления, наблюдавшиеся между сроками (за 1-3 часа до срока); квадратными скобками обозначены град или гололедные отложения с указанием их диаметра в мм.
Облачность - указаны через наклонную черту общая и нижняя облачность в баллах и высота нижней границы облаков в метрах; квадратными скобками обозначены формы облаков: Ci - перистые, Cs - перисто-слоистые, Cc - перисто-кучевые, Ac - высококучевые, As - высокослоистые, Sc - слоисто-кучевые, Ns - слоисто-дождевые, Cu - кучевые, Cb - кучево-дождевые. Подробнее классификацию облаков см. в Атласе облаков (PDF).
T - Температура воздуха - температура, измеренная на высоте 2 м над землей.
Td - Температура точки росы - температура, при понижении до которой содержащийся в воздухе водяной пар достигнет насыщения.
f - Относительная влажность воздуха - влажноcть воздуха, измеренная на высоте 2 м над землей.
Te - Эффективная температура - температура, которую ощущает одетый по сезону человек в тени. Характеристика душности погоды. При расчете учитывается влияние влажности воздуха и скорости ветра на теплоощущения человека.
Tes - Эффективная температура на солнце - температура, которую ощущает человек, с поправкой на солнечный нагрев. Характеристика знойности погоды. Зависит от высоты солнца над горизонтом, облачности и скорости ветра. Ночью, в пасмурную погоду, а также при ветре 12 м/с и более поправка равна нулю.
P - Атмосферное давление - приведенное к уровню моря атмосферное давление.
Po - Атмосферное давление - измеренное на уровне метеостанции атмосферное давление.
Tmin - Минимальная температура - минимум температуры воздуха на высоте 2 м над землей.
Tmax - Максимальная температура - максимум температуры воздуха на высоте 2 м над землей.
R - Количество осадков - Количество выпавших осадков за период времени, мм. При наведении курсора мыши на число - период времени, за который выпало указанное количество осадков.
R24 - Количество осадков - Количество выпавших осадков за 24 часа, мм.
S - Снежный покров - Высота снежного покрова, см. При наведении курсора мыши на число - состояние снежного покрова и степень покрытия местности в баллах.